Location: Unspecified
(0.0000°N, 0.0000°E)
Time: 09:12:01
(UTC+00:00)

Explorer 11/Cluster Stage 4 - Pass Details

Date: 22 July 2020
Orbit: 467 x 1259 km, 28.8° (Epoch: 03 August)

Event Time Altitude Azimuth Distance (km) Brightness Sun altitude
Rises 18:33:42 0° 243° (WSW) 4,086 10.9 -6.4°
Reaches altitude 10° 18:40:32 10° 203° (SSW) 3,224 9.8 -8.0°
Maximum altitude 18:41:25 10° 196° (SSW) 3,214 9.7 -8.2°
Drops below altitude 10° 18:42:19 10° 190° (S) 3,232 9.6 -8.4°
Enters shadow 18:49:02 - 151° (SSE) 4,109 9.8 -10.0°
Sets 18:49:17 0° 150° (SSE) 4,161 - -10.0°
